132  
ASUS44 KSHV 261810  
RWRSHV  
 
WEATHER ROUNDUP FOR THE FOUR STATE AREA  
NATIONAL WEATHER SERVICE SHREVEPORT LA  
100 PM CDT THU APR 26 2018  
 
NOTE: "FAIR" INDICATES FEW OR NO CLOUDS BELOW 12000 FEET  
WITH NO SIGNIFICANT WEATHER AND/OR S TO VISIBILITY
.  
 
!LAZ001-LAZ014-TXZ097-261900  
SHREVEPORT...MONROE...TEXARKANA RADIOS  
 
CITY SKY/WX TMP DP RH WIND PRES REMARKS
 
SHREVEPORT CLOUDY 63 49 60 N9 29.99F  
MONROE CLOUDY 60 52 74 NW12 29.99R  
NATCHITOCHES N/A 64 51 63 NW7 29.99F  
TEXARKANA PTSUNNY 62 50 64 VRB5 30.00S  

 
 
!LAZ001-LAZ014-TXZ097-261900  
OTHER LOCATIONS...  
 
CITY SKY/WX TMP DP RH WIND PRES REMARKS
 
DOWNTOWN SHV PTSUNNY 65 50 58 N9 30.00F  
BOSSIER CITY PTSUNNY 61 49 65 N10 29.99  
RUSTON CLOUDY 58 49 73 NW5 30.02F  
LITTLE ROCK PTSUNNY 66 53 63 N12 29.94F  
EL DORADO CLOUDY 60 54 80 N8 29.99F  
JACKSON CLOUDY 62 52 69 W9 29.91F  
NEW ORLEANS N/A 72 55 55 NW10 29.91F  
HOUSTON N/A 72 47 40 N8 30.01F  
LUFKIN MOSUNNY 66 48 52 VRB6 30.01F  
TYLER MOSUNNY 65 46 50 N13G18 30.01F  
DAL FT WORTH MOSUNNY 66 44 45 N5 30.01F  

 
 
!TXZ136-TXZ165-261900  
TYLER...LUFKIN RADIOS  
 
CITY SKY/WX TMP DP RH WIND PRES REMARKS
 
TYLER MOSUNNY 65 46 50 N13G18 30.01F  
GILMER PTCLDY 62 50 65 N7 30.01F  
LONGVIEW MOSUNNY 64 50 60 N9 30.00F  
LUFKIN MOSUNNY 66 48 52 VRB6 30.01F  

 
 
!TXZ136-TXZ165-261900  
OTHER LOCATIONS...  
 
CITY SKY/WX TMP DP RH WIND PRES REMARKS
 
NACOGDOCHES N/A 66 48 52 N10G18 30.01F  
BEAUMONT N/A 72 48 42 N10 29.99  
HOUSTON N/A 72 47 40 N8 30.01F  
COLLEGE STN SUNNY 68 47 46 NE10 30.03F  
AUSTIN SUNNY 70 49 47 VRB7 30.04F  
DAL FT WORTH MOSUNNY 66 44 45 N5 30.01F  
TEXARKANA PTSUNNY 62 50 64 VRB5 30.00S  
SHREVEPORT CLOUDY 63 49 60 N9 29.99F  
FORT POLK N/A 67 48 49 N8 29.96  
LAKE CHARLES N/A 71 47 42 NW10 29.98F  

 
 
 
CLICK HERE TO GO TO PREVIOUS BULLETINS.

The Nexlab LA Page
The Nexlab TX Page
The Nexlab AR Page
The Nexlab OK Page Main Text Page